Time,TemperatureF,DewpointF,PressureIn,WindDirection,WindDirectionDegrees,WindSpeedMPH,WindSpeedGustMPH,Humidity,HourlyPrecipIn,Conditions,Clouds,dailyrainin,SoftwareType,DateUTC
2013-06-24 00:02:00,74.0,-99.9,-100.00,SW,232,6.0,9.0,-999,-99.99,,,-99.99,,2013-06-24 05:02:00,
2013-06-24 00:12:00,74.0,-99.9,-100.00,West,278,4.0,8.0,-999,-99.99,,,-99.99,,2013-06-24 05:12:00,
2013-06-24 00:22:00,74.0,-99.9,-100.00,SW,233,6.0,7.0,-999,-99.99,,,-99.99,,2013-06-24 05:22:00,
2013-06-24 00:49:00,73.0,-99.9,-100.00,WSW,243,8.0,9.0,-999,-99.99,,,-99.99,,2013-06-24 05:49:00,
2013-06-24 00:59:00,73.0,-99.9,-100.00,WSW,243,5.0,10.0,-999,-99.99,,,-99.99,,2013-06-24 05:59:00,
2013-06-24 01:10:00,73.0,-99.9,-100.00,SW,229,4.0,8.0,-999,-99.99,,,-99.99,,2013-06-24 06:10:00,
2013-06-24 01:16:00,73.0,-99.9,-100.00,WSW,239,5.0,8.0,-999,-99.99,,,-99.99,,2013-06-24 06:16:00,
2013-06-24 01:24:00,73.0,-99.9,-100.00,SSW,209,3.0,7.0,-999,-99.99,,,-99.99,,2013-06-24 06:24:00,
2013-06-24 01:41:00,73.0,-99.9,-100.00,WSW,251,5.0,7.0,-999,-99.99,,,-99.99,,2013-06-24 06:41:00,
2013-06-24 01:49:00,73.0,-99.9,-100.00,WSW,257,6.0,7.0,-999,-99.99,,,-99.99,,2013-06-24 06:49:00,
2013-06-24 01:57:00,73.0,-99.9,-100.00,SW,234,3.0,9.0,-999,-99.99,,,-99.99,,2013-06-24 06:57:00,
2013-06-24 02:07:00,73.0,-99.9,-100.00,SW,234,5.0,8.0,-999,-99.99,,,-99.99,,2013-06-24 07:07:00,
2013-06-24 02:17:00,73.0,-99.9,-100.00,SSW,205,0.0,7.0,-999,-99.99,,,-99.99,,2013-06-24 07:17:00,
2013-06-24 02:32:00,72.0,-99.9,-100.00,WSW,246,2.0,7.0,-999,-99.99,,,-99.99,,2013-06-24 07:32:00,
2013-06-24 02:39:00,72.0,-99.9,-100.00,WSW,258,7.0,8.0,-999,-99.99,,,-99.99,,2013-06-24 07:39:00,
2013-06-24 02:50:00,72.0,-99.9,-100.00,SSW,208,5.0,8.0,-999,-99.99,,,-99.99,,2013-06-24 07:50:00,
2013-06-24 02:58:00,72.0,-99.9,-100.00,SW,216,3.0,9.0,-999,-99.99,,,-99.99,,2013-06-24 07:58:00,
2013-06-24 03:15:00,72.0,-99.9,-100.00,NW,312,0.0,4.0,-999,-99.99,,,-99.99,,2013-06-24 08:15:00,
2013-06-24 03:38:00,72.0,-99.9,-100.00,NW,310,0.0,6.0,-999,-99.99,,,-99.99,,2013-06-24 08:38:00,
2013-06-24 03:48:00,72.0,-99.9,-100.00,SSW,198,0.0,9.0,-999,-99.99,,,-99.99,,2013-06-24 08:48:00,
2013-06-24 03:57:00,72.0,-99.9,-100.00,North,358,6.0,6.0,-999,-99.99,,,-99.99,,2013-06-24 08:57:00,
2013-06-24 04:09:00,72.0,-99.9,-100.00,ESE,115,0.0,7.0,-999,-99.99,,,-99.99,,2013-06-24 09:09:00,
2013-06-24 04:17:00,72.0,-99.9,-100.00,SSE,167,9.0,13.0,-999,-99.99,,,-99.99,,2013-06-24 09:17:00,
2013-06-24 04:28:00,72.0,-99.9,-100.00,SSE,157,9.0,14.0,-999,-99.99,,,-99.99,,2013-06-24 09:28:00,
2013-06-24 04:49:00,72.0,-99.9,-100.00,NNE,23,6.0,10.0,-999,-99.99,,,-99.99,,2013-06-24 09:49:00,
2013-06-24 05:00:00,72.0,-99.9,-100.00,ENE,60,0.0,9.0,-999,-99.99,,,-99.99,,2013-06-24 10:00:00,
2013-06-24 05:06:00,72.0,-99.9,-100.00,North,358,7.0,7.0,-999,-99.99,,,-99.99,,2013-06-24 10:06:00,
2013-06-24 05:15:00,72.0,-99.9,-100.00,SE,132,4.0,8.0,-999,-99.99,,,-99.99,,2013-06-24 10:15:00,
2013-06-24 05:25:00,72.0,-99.9,-100.00,North,358,0.0,6.0,-999,-99.99,,,-99.99,,2013-06-24 10:25:00,
2013-06-24 05:38:00,72.0,-99.9,-100.00,North,350,6.0,6.0,-999,-99.99,,,-99.99,,2013-06-24 10:38:00,
2013-06-24 05:53:00,72.0,-99.9,-100.00,North,350,6.0,6.0,-999,-99.99,,,-99.99,,2013-06-24 10:53:00,
2013-06-24 06:04:00,71.0,-99.9,-100.00,ENE,63,9.0,10.0,-999,-99.99,,,-99.99,,2013-06-24 11:04:00,
2013-06-24 06:30:00,71.0,-99.9,-100.00,NE,45,8.0,10.0,-999,-99.99,,,-99.99,,2013-06-24 11:30:00,
2013-06-24 06:37:00,71.0,-99.9,-100.00,ENE,60,8.0,15.0,-999,-99.99,,,-99.99,,2013-06-24 11:37:00,
2013-06-24 06:52:00,71.0,-99.9,-100.00,NE,45,0.0,7.0,-999,-99.99,,,-99.99,,2013-06-24 11:52:00,
2013-06-24 06:58:00,71.0,-99.9,-100.00,ESE,120,0.0,5.0,-999,-99.99,,,-99.99,,2013-06-24 11:58:00,
2013-06-24 07:07:00,71.0,-99.9,-100.00,SSE,161,5.0,7.0,-999,-99.99,,,-99.99,,2013-06-24 12:07:00,
2013-06-24 07:17:00,71.0,-99.9,-100.00,SSW,205,3.0,9.0,-999,-99.99,,,-99.99,,2013-06-24 12:17:00,
2013-06-24 07:26:00,71.0,-99.9,-100.00,South,170,9.0,9.0,-999,-99.99,,,-99.99,,2013-06-24 12:26:00,
2013-06-24 07:37:00,71.0,-99.9,-100.00,SE,144,9.0,12.0,-999,-99.99,,,-99.99,,2013-06-24 12:37:00,
2013-06-24 07:56:00,71.0,-99.9,-100.00,SSE,157,8.0,9.0,-999,-99.99,,,-99.99,,2013-06-24 12:56:00,
2013-06-24 08:07:00,71.0,-99.9,-100.00,SSE,157,8.0,9.0,-999,-99.99,,,-99.99,,2013-06-24 13:07:00,
2013-06-24 08:15:00,71.0,-99.9,-100.00,South,182,8.0,9.0,-999,-99.99,,,-99.99,,2013-06-24 13:15:00,
2013-06-24 08:25:00,71.0,-99.9,-100.00,SE,144,4.0,9.0,-999,-99.99,,,-99.99,,2013-06-24 13:25:00,
2013-06-24 08:46:00,71.0,-99.9,-100.00,NE,42,10.0,18.0,-999,-99.99,,,-99.99,,2013-06-24 13:46:00,
2013-06-24 08:58:00,71.0,-99.9,-100.00,NNW,348,0.0,10.0,-999,-99.99,,,-99.99,,2013-06-24 13:58:00,
2013-06-24 09:05:00,71.0,-99.9,-100.00,NE,45,3.0,6.0,-999,-99.99,,,-99.99,,2013-06-24 14:05:00,
2013-06-24 09:16:00,71.0,-99.9,-100.00,NE,45,3.0,6.0,-999,-99.99,,,-99.99,,2013-06-24 14:16:00,
2013-06-24 09:25:00,71.0,-99.9,-100.00,NE,45,3.0,6.0,-999,-99.99,,,-99.99,,2013-06-24 14:25:00,
2013-06-24 09:39:00,72.0,-99.9,-100.00,ESE,111,0.0,4.0,-999,-99.99,,,-99.99,,2013-06-24 14:39:00,
2013-06-24 09:48:00,72.0,-99.9,-100.00,ESE,111,0.0,4.0,-999,-99.99,,,-99.99,,2013-06-24 14:48:00,
2013-06-24 10:00:00,72.0,-99.9,-100.00,ESE,111,0.0,4.0,-999,-99.99,,,-99.99,,2013-06-24 15:00:00,
2013-06-24 10:06:00,73.0,-99.9,-100.00,East,87,0.0,6.0,-999,-99.99,,,-99.99,,2013-06-24 15:06:00,
2013-06-24 10:16:00,74.0,-99.9,-100.00,ESE,102,0.0,6.0,-999,-99.99,,,-99.99,,2013-06-24 15:16:00,
2013-06-24 10:37:00,75.0,-99.9,-100.00,SE,132,5.0,7.0,-999,-99.99,,,-99.99,,2013-06-24 15:37:00,
2013-06-24 10:49:00,75.0,-99.9,-100.00,South,170,7.0,8.0,-999,-99.99,,,-99.99,,2013-06-24 15:49:00,
2013-06-24 10:57:00,75.0,-99.9,-100.00,South,182,8.0,9.0,-999,-99.99,,,-99.99,,2013-06-24 15:57:00,
2013-06-24 11:05:00,76.0,-99.9,-100.00,SE,127,4.0,10.0,-999,-99.99,,,-99.99,,2013-06-24 16:05:00,
2013-06-24 11:15:00,77.0,-99.9,-100.00,SE,144,7.0,10.0,-999,-99.99,,,-99.99,,2013-06-24 16:15:00,
2013-06-24 11:25:00,77.0,-99.9,-100.00,South,191,3.0,8.0,-999,-99.99,,,-99.99,,2013-06-24 16:25:00,
2013-06-24 11:37:00,78.0,-99.9,-100.00,South,182,4.0,9.0,-999,-99.99,,,-99.99,,2013-06-24 16:37:00,
2013-06-24 11:46:00,79.0,-99.9,-100.00,SSE,164,3.0,8.0,-999,-99.99,,,-99.99,,2013-06-24 16:46:00,
2013-06-24 12:08:00,81.0,-99.9,-100.00,SSE,160,5.0,11.0,-999,-99.99,,,-99.99,,2013-06-24 17:08:00,
2013-06-24 12:15:00,81.0,-99.9,-100.00,WSW,239,5.0,6.0,-999,-99.99,,,-99.99,,2013-06-24 17:15:00,
2013-06-24 12:48:00,83.0,-99.9,-100.00,South,180,3.0,7.0,-999,-99.99,,,-99.99,,2013-06-24 17:48:00,
2013-06-24 12:58:00,84.0,-99.9,-100.00,SSE,160,0.0,8.0,-999,-99.99,,,-99.99,,2013-06-24 17:58:00,
2013-06-24 13:03:00,84.0,-99.9,-100.00,SSE,160,0.0,8.0,-999,-99.99,,,-99.99,,2013-06-24 18:03:00,
2013-06-24 13:15:00,85.0,-99.9,-100.00,SW,227,3.0,8.0,-999,-99.99,,,-99.99,,2013-06-24 18:15:00,
2013-06-24 13:27:00,85.0,-99.9,-100.00,SW,236,4.0,9.0,-999,-99.99,,,-99.99,,2013-06-24 18:27:00,
2013-06-24 13:38:00,85.0,-99.9,-100.00,SSW,199,3.0,13.0,-999,-99.99,,,-99.99,,2013-06-24 18:38:00,
2013-06-24 13:50:00,85.0,-99.9,-100.00,West,261,7.0,9.0,-999,-99.99,,,-99.99,,2013-06-24 18:50:00,
2013-06-24 13:57:00,86.0,-99.9,-100.00,SW,215,5.0,12.0,-999,-99.99,,,-99.99,,2013-06-24 18:57:00,
2013-06-24 14:08:00,86.0,-99.9,-100.00,SSW,196,3.0,13.0,-999,-99.99,,,-99.99,,2013-06-24 19:08:00,
2013-06-24 14:26:00,86.0,-99.9,-100.00,SSW,199,0.0,7.0,-999,-99.99,,,-99.99,,2013-06-24 19:26:00,
2013-06-24 14:38:00,86.0,-99.9,-100.00,West,261,6.0,10.0,-999,-99.99,,,-99.99,,2013-06-24 19:38:00,
2013-06-24 14:43:00,86.0,-99.9,-100.00,SSW,198,6.0,11.0,-999,-99.99,,,-99.99,,2013-06-24 19:43:00,
2013-06-24 14:47:00,86.0,-99.9,-100.00,West,261,6.0,10.0,-999,-99.99,,,-99.99,,2013-06-24 19:47:00,
2013-06-24 14:57:00,86.0,-99.9,-100.00,West,261,6.0,10.0,-999,-99.99,,,-99.99,,2013-06-24 19:57:00,
2013-06-24 15:06:00,86.0,-99.9,-100.00,SSW,198,6.0,11.0,-999,-99.99,,,-99.99,,2013-06-24 20:06:00,
2013-06-24 15:13:00,86.0,-99.9,-100.00,SSW,198,6.0,11.0,-999,-99.99,,,-99.99,,2013-06-24 20:13:00,
2013-06-24 15:24:00,86.0,-99.9,-100.00,SSW,198,6.0,11.0,-999,-99.99,,,-99.99,,2013-06-24 20:24:00,
2013-06-24 15:35:00,86.0,-99.9,-100.00,SSW,198,6.0,11.0,-999,-99.99,,,-99.99,,2013-06-24 20:35:00,
2013-06-24 16:49:00,85.0,-99.9,-100.00,SW,234,3.0,7.0,-999,-99.99,,,-99.99,,2013-06-24 21:49:00,
2013-06-24 16:56:00,85.0,-99.9,-100.00,SW,234,3.0,7.0,-999,-99.99,,,-99.99,,2013-06-24 21:56:00,
2013-06-24 17:07:00,85.0,-99.9,-100.00,SW,234,3.0,7.0,-999,-99.99,,,-99.99,,2013-06-24 22:07:00,
2013-06-24 17:25:00,84.0,-99.9,-100.00,NW,310,0.0,6.0,-999,-99.99,,,-99.99,,2013-06-24 22:25:00,
2013-06-24 17:38:00,84.0,-99.9,-100.00,NW,310,0.0,6.0,-999,-99.99,,,-99.99,,2013-06-24 22:38:00,
2013-06-24 17:51:00,81.0,-99.9,-100.00,West,261,4.0,15.0,-999,-99.99,,,-99.99,,2013-06-24 22:51:00,
2013-06-24 17:56:00,80.0,-99.9,-100.00,WNW,291,5.0,16.0,-999,-99.99,,,-99.99,,2013-06-24 22:56:00,
2013-06-24 18:14:00,79.0,-99.9,-100.00,WSW,248,4.0,6.0,-999,-99.99,,,-99.99,,2013-06-24 23:14:00,
2013-06-24 18:28:00,79.0,-99.9,-100.00,NNW,347,0.0,5.0,-999,-99.99,,,-99.99,,2013-06-24 23:28:00,
2013-06-24 18:38:00,78.0,-99.9,-100.00,North,350,0.0,0.0,-999,-99.99,,,-99.99,,2013-06-24 23:38:00,
2013-06-24 20:39:00,75.0,-99.9,-100.00,WNW,302,0.0,0.0,-999,-99.99,,,-99.99,,2013-06-25 01:39:00,
2013-06-24 20:46:00,75.0,-99.9,-100.00,ESE,122,0.0,7.0,-999,-99.99,,,-99.99,,2013-06-25 01:46:00,
2013-06-24 20:59:00,75.0,-99.9,-100.00,ESE,122,0.0,0.0,-999,-99.99,,,-99.99,,2013-06-25 01:59:00,
2013-06-24 21:06:00,75.0,-99.9,-100.00,SSE,168,5.0,0.0,-999,-99.99,,,-99.99,,2013-06-25 02:06:00,
2013-06-24 21:16:00,75.0,-99.9,-100.00,South,175,5.0,7.0,-999,-99.99,,,-99.99,,2013-06-25 02:16:00,
2013-06-24 21:26:00,75.0,-99.9,-100.00,South,170,6.0,8.0,-999,-99.99,,,-99.99,,2013-06-25 02:26:00,
2013-06-24 21:39:00,75.0,-99.9,-100.00,SSE,161,7.0,9.0,-999,-99.99,,,-99.99,,2013-06-25 02:39:00,
2013-06-24 21:50:00,75.0,-99.9,-100.00,SE,144,7.0,10.0,-999,-99.99,,,-99.99,,2013-06-25 02:50:00,
2013-06-24 22:08:00,74.0,-99.9,-100.00,SSE,163,6.0,10.0,-999,-99.99,,,-99.99,,2013-06-25 03:08:00,
2013-06-24 22:20:00,74.0,-99.9,-100.00,SSE,160,6.0,9.0,-999,-99.99,,,-99.99,,2013-06-25 03:20:00,
2013-06-24 22:36:00,74.0,-99.9,-100.00,South,171,6.0,9.0,-999,-99.99,,,-99.99,,2013-06-25 03:36:00,
2013-06-24 22:49:00,74.0,-99.9,-100.00,SE,133,8.0,11.0,-999,-99.99,,,-99.99,,2013-06-25 03:49:00,
2013-06-24 23:00:00,74.0,-99.9,-100.00,SSE,168,9.0,10.0,-999,-99.99,,,-99.99,,2013-06-25 04:00:00,
2013-06-24 23:01:00,74.0,-99.9,-100.00,South,170,7.0,11.0,-999,-99.99,,,-99.99,,2013-06-25 04:01:00,
2013-06-24 23:02:00,74.0,-99.9,-100.00,South,171,7.0,10.0,-999,-99.99,,,-99.99,,2013-06-25 04:02:00,
2013-06-24 23:11:00,74.0,-99.9,-100.00,South,189,6.0,10.0,-999,-99.99,,,-99.99,,2013-06-25 04:11:00,
2013-06-24 23:22:00,74.0,-99.9,-100.00,South,170,7.0,10.0,-999,-99.99,,,-99.99,,2013-06-25 04:22:00,
2013-06-24 23:34:00,74.0,-99.9,-100.00,SSE,167,6.0,9.0,-999,-99.99,,,-99.99,,2013-06-25 04:34:00,
2013-06-24 23:43:00,73.0,-99.9,-100.00,SE,135,5.0,8.0,-999,-99.99,,,-99.99,,2013-06-25 04:43:00,
2013-06-24 23:52:00,73.0,-99.9,-100.00,SSE,168,5.0,9.0,-999,-99.99,,,-99.99,,2013-06-25 04:52:00,